McCall, ID

7:56 PM MDT on April 28, 2017 (GMT -0600)
McCall

Weather History for KMYL - April, 2012

Change the Weather History Date:

Tuesday, April 3, 2012

  Actual Average Record
Temperature  
Mean Temperature 34 °F 33 °F  
Max Temperature 50 °F 44 °F 68 °F (1990)
Min Temperature 17 °F 23 °F 0 °F (1955)
Degree Days  
Heating Degree Days 31 32  
Month to date heating degree days 103 96  
Since 1 July heating degree days 7164 7885  
Cooling Degree Days 0 0  
Month to date cooling degree days 0 0  
Year to date cooling degree days 0 0  
Moisture  
Dew Point 20 °F    
Average Humidity 62    
Maximum Humidity 92    
Minimum Humidity 31    
Precipitation  
Precipitation 0.00 in 0.07 in 0.58 in (1988)
Month to date precipitation 0.07 0.21  
Year to date precipitation 11.69 5.88  
Sea Level Pressure  
Sea Level Pressure 30.04 in    
Wind  
Wind Speed 2 mph (SSW)    
Max Wind Speed 10 mph    
Max Gust Speed 13 mph    
Visibility 10 miles    
Events      
T = Trace of Precipitation, MM = Missing Value Source: NWS Daily Summary

Daily Weather History Graph

Daily Weather History Graph

Search for Another Location

Airport or City:

Trip Planner

Search our weather history database for the weather conditions in past years. The results will help you decide how hot, cold, wet, or windy it might be!

Date:

Astronomy

Apr. 03, 2012 Rise Set
Actual Time 7:20 AM MDT 8:15 PM MDT
Civil Twilight 6:50 AM MDT 8:45 PM MDT
Nautical Twilight 6:15 AM MDT 9:20 PM MDT
Astronomical Twilight 5:38 AM MDT 9:58 PM MDT
Moon 4:57 PM MDT (4/3) 5:19 AM MDT (4/3)
Length of Visible Light 13h 54m
Length of Day
12h 55m
Waxing Gibbous, 87% of the Moon is Illuminated
Apr 3
Waxing Gibbous
Apr 6
Full
Apr 13
Last Quarter
Apr 21
New
Apr 29
First Quarter

Hourly Weather History & Observations

Time (MDT) Temp. Windchill Dew Point Humidity Pressure Visibility Wind Dir Wind Speed Gust Speed Precip Events Conditions
12:51 AM 26.1 °F - 19.0 °F 75% 30.22 in 10.0 mi Calm Calm - N/A   Clear
1:51 AM 24.1 °F - 18.0 °F 77% 30.22 in 10.0 mi Calm Calm - N/A   Clear
2:51 AM 23.0 °F 18.4 °F 18.0 °F 81% 30.22 in 10.0 mi NNW 3.5 mph - N/A   Clear
3:51 AM 23.0 °F - 17.1 °F 78% 30.19 in 10.0 mi Calm Calm - N/A   Clear
4:51 AM 19.9 °F - 17.1 °F 89% 30.17 in 10.0 mi Calm Calm - N/A   Clear
5:51 AM 21.0 °F - 17.1 °F 85% 30.14 in 10.0 mi Calm Calm - N/A   Clear
6:51 AM 18.0 °F - 16.0 °F 92% 30.14 in 10.0 mi Calm Calm - N/A   Clear
7:51 AM 19.0 °F - 16.0 °F 88% 30.14 in 10.0 mi Calm Calm - N/A   Clear
8:51 AM 26.1 °F - 19.9 °F 78% 30.13 in 10.0 mi Calm Calm - N/A   Clear
9:51 AM 28.9 °F - 19.9 °F 69% 30.14 in 10.0 mi Calm Calm - N/A   Clear
10:51 AM 32.0 °F 28.7 °F 21.0 °F 64% 30.12 in 10.0 mi South 3.5 mph - N/A   Clear
11:51 AM 37.0 °F 34.5 °F 19.0 °F 48% 30.09 in 10.0 mi SW 3.5 mph - N/A   Scattered Clouds
12:51 PM 39.9 °F 37.8 °F 21.9 °F 49% 30.05 in 10.0 mi South 3.5 mph - N/A   Scattered Clouds
1:51 PM 45.0 °F - 21.0 °F 39% 30.01 in 10.0 mi Calm Calm - N/A   Clear
2:51 PM 45.0 °F 41.8 °F 19.0 °F 36% 30.00 in 10.0 mi South 5.8 mph - N/A   Partly Cloudy
3:51 PM 46.9 °F - 21.9 °F 37% 29.97 in 10.0 mi South 9.2 mph - N/A   Clear
4:51 PM 48.9 °F - 19.0 °F 31% 29.94 in 10.0 mi South 6.9 mph - N/A   Clear
5:51 PM 48.9 °F - 21.9 °F 35% 29.91 in 10.0 mi SSW 5.8 mph - N/A   Mostly Cloudy
6:51 PM 48.9 °F - 21.0 °F 33% 29.90 in 10.0 mi Calm Calm - N/A   Partly Cloudy
7:51 PM 48.0 °F - 23.0 °F 37% 29.88 in 10.0 mi ESE 3.5 mph - N/A   Clear
8:51 PM 41.0 °F 38.0 °F 26.1 °F 55% 29.86 in 10.0 mi NNE 4.6 mph - N/A   Scattered Clouds
9:51 PM 36.0 °F 33.3 °F 26.1 °F 67% 29.87 in 10.0 mi NW 3.5 mph - N/A   Clear
10:51 PM 33.1 °F 30.0 °F 25.0 °F 72% 29.86 in 10.0 mi NW 3.5 mph - N/A   Clear
11:51 PM 32.0 °F - 25.0 °F 75% 29.82 in 10.0 mi Calm Calm - N/A   Scattered Clouds